This is the latest recevied weather packets stored in our database for station/object IR4UCA-3. If no packets are shown the sender has not sent any weather packets the latest 1 day(s).
| Time | Temp. | Humidity | Pressure | Rain* | Wind** | Luminosity | Snow |
|---|---|---|---|---|---|---|---|
| 1777982581 | 17.78° C | 88% | 1012.2 hPa | 0 mm | 1.79 m/s, 71° | - | - |
| 1777982341 | 17.78° C | 89% | 1012.2 hPa | 0 mm | 0.89 m/s, 78° | - | - |
| 1777982225 | 17.78° C | 89% | 1012.3 hPa | 0 mm | 0.45 m/s, 54° | - | - |
| 1777982100 | 17.78° C | 89% | 1012.3 hPa | 0 mm | 0.45 m/s, 72° | - | - |
| 1777981980 | 17.78° C | 89% | 1012.3 hPa | 0 mm | 1.34 m/s, 72° | - | - |
| 1777981858 | 17.78° C | 90% | 1012.4 hPa | 0 mm | 0.89 m/s, 144° | - | - |
| 1777981736 | 17.22° C | 90% | 1012.4 hPa | 0 mm | 0.45 m/s, 59° | - | - |
| 1777981612 | 17.22° C | 90% | 1012.4 hPa | 0 mm | 0.89 m/s, 59° | - | - |
| 1777981490 | 17.22° C | 90% | 1012.3 hPa | 0 mm | 1.34 m/s, 59° | - | - |
| 1777981371 | 17.22° C | 90% | 1012.4 hPa | 0 mm | 0.45 m/s, 59° | - | - |
| 1777981255 | 17.22° C | 90% | 1012.4 hPa | 0 mm | 0.89 m/s, 69° | - | - |
| 1777981130 | 16.67° C | 90% | 1012.3 hPa | 0 mm | 1.79 m/s, 76° | - | - |
| 1777981009 | 16.67° C | 90% | 1012.4 hPa | 0 mm | 1.79 m/s, 85° | - | - |
| 1777980888 | 16.67° C | 90% | 1012.3 hPa | 0 mm | 2.68 m/s, 68° | - | - |
| 1777980766 | 16.67° C | 90% | 1012.3 hPa | 0 mm | 2.68 m/s, 58° | - | - |
| 1777980652 | 16.67° C | 90% | 1012.3 hPa | 0 mm | 2.24 m/s, 73° | - | - |
| 1777980523 | 16.67° C | 90% | 1012.2 hPa | 0 mm | 2.68 m/s, 75° | - | - |
| 1777980403 | 16.67° C | 90% | 1012.3 hPa | 0 mm | 1.79 m/s, 72° | - | - |
| 1777980281 | 16.67° C | 90% | 1012.3 hPa | 0 mm | 1.79 m/s, 79° | - | - |
| 1777980159 | 16.67° C | 90% | 1012.2 hPa | 0 mm | 0.89 m/s, 62° | - | - |
| 1777980041 | 16.67° C | 90% | 1012.3 hPa | 0 mm | 1.79 m/s, 73° | - | - |
| 1777979917 | 16.67° C | 90% | 1012.2 hPa | 0 mm | 2.24 m/s, 72° | - | - |
| 1777979798 | 16.67° C | 90% | 1012.3 hPa | 0 mm | 2.24 m/s, 76° | - | - |
| 1777979678 | 16.67° C | 90% | 1012.3 hPa | 0 mm | 1.79 m/s, 69° | - | - |
| 1777979561 | 16.67° C | 91% | 1012.2 hPa | 0 mm | 2.68 m/s, 75° | - | - |
* Rain latest hour (hover to see other rain measurements)
** Current wind speed in m/s (hover to see current wind gust speed)